User: anonymous   Login
Location: Unspecified
(0.0000°N, 0.0000°E)
Time: 04:50:56
(UTC+00:00)
Language:

Hubble Space Telescope - Orbit

View from above orbital plane
View from above orbital plane
View from above satellite
View from above satellite

Ground track
Ground track

The orbit data is extracted from the following two-line orbital elements,

1 20580U 90037B   15028.62739583  .00002860  00000-0  17630-3 0  2105
2 20580 028.4717 353.9520 0002938 176.7707 153.7168 15.06695676158736
Epoch (UTC): 28 January 2015 15:03:27
Eccentricity: 0.0002938
inclination: 28.4717°
perigee height: 544 km
apogee height: 548 km
right ascension of ascending node: 353.9520°
argument of perigee: 176.7707°
revolutions per day: 15.06695676
mean anomaly at epoch: 153.7168°
orbit number at epoch: 15873

The dashed part of the orbit path shows where the satellite is in the earth's shadow,  

DLR